Theta_e
338 337 343 349 351 352 351 352 353 352 352 352 352 351 351 350 350 350 349 349 348 349 349 348 349 348 349 349 349 349 349 349 348 348 348 348 348 348 349 349 349 349 349 350 349 351 351 351 351 350 349 348 347 346 345 345 346 346 345 345 345 347 348 348 348 348 349 351 352 351 350 350 350 351 351 352 353 353 351 351 350 349 348 350 352
338 339 343 347 350 352 352 352 352 352 352 352 352 351 351 350 349 349 349 349 349 349 349 348 349 348 349 349 348 349 349 348 349 349 348 348 348 348 348 348 349 349 348 350 350 350 350 349 350 349 348 347 345 344 343 343 343 343 343 344 344 344 345 346 346 346 346 348 350 350 350 349 349 349 351 351 351 351 350 351 350 347 346 351 352
340 340 343 346 349 350 352 352 353 353 352 352 352 350 350 349 349 349 349 349 349 349 349 349 348 349 349 348 349 348 348 348 349 349 348 348 348 348 348 348 348 348 348 348 350 349 347 349 347 346 345 344 342 342 341 340 339 340 341 342 342 342 343 344 344 345 345 346 347 347 346 348 348 348 349 349 349 349 349 350 349 349 347 351 351
338 340 343 346 347 349 352 352 352 352 352 352 351 350 350 349 349 349 349 349 349 349 349 349 349 348 349 348 348 348 348 348 347 348 348 348 348 348 348 348 347 347 347 349 348 349 348 346 345 343 342 341 340 340 339 338 337 337 338 339 340 341 341 342 343 343 344 343 345 343 344 340 344 349 348 348 348 348 347 347 349 349 350 350 351
338 340 343 345 346 347 351 352 353 353 353 352 351 350 349 349 349 349 350 350 349 350 349 349 349 349 349 349 349 349 348 348 348 348 348 348 348 348 348 347 347 347 347 347 348 347 347 345 342 341 340 339 338 337 336 336 336 335 335 336 337 338 338 339 340 341 342 343 342 339 337 342 342 348 348 348 348 347 347 346 346 347 348 349 350
338 340 342 345 345 346 349 351 353 352 352 351 351 350 350 349 349 350 350 350 349 349 349 349 350 349 349 349 349 348 349 348 348 347 348 348 347 347 347 347 347 346 346 346 347 346 345 344 342 339 338 336 336 335 334 334 334 334 333 334 334 336 336 337 338 339 340 340 336 333 336 340 342 346 349 347 347 346 346 346 347 346 346 348 349
339 340 342 344 344 345 346 351 353 353 352 352 351 350 350 349 349 349 350 350 349 349 349 349 349 349 348 348 348 348 348 347 347 347 347 346 347 347 347 346 346 346 346 346 346 345 343 341 340 338 336 335 334 333 332 332 332 332 331 331 332 332 334 335 336 337 338 334 327 333 342 342 341 342 348 347 349 348 347 347 347 348 347 346 347
340 341 342 343 344 344 346 351 352 353 352 351 351 350 350 349 349 349 349 349 349 349 349 349 349 349 349 349 349 348 348 347 346 345 345 345 344 345 346 346 345 345 344 344 344 342 341 340 338 337 335 334 333 333 332 331 331 330 329 329 329 331 332 334 335 336 336 326 329 340 340 340 341 342 347 347 347 345 348 348 348 348 347 347 346
339 340 341 342 343 343 345 349 352 352 352 352 351 351 350 349 349 349 349 349 349 349 349 349 349 349 349 349 348 348 348 346 345 344 344 344 343 343 342 341 340 342 342 342 341 340 339 338 337 335 334 333 332 332 331 330 329 329 329 327 328 330 331 331 334 335 328 326 332 339 340 339 339 339 346 347 347 346 345 344 345 346 346 344 344
339 340 341 342 342 342 344 349 352 352 352 352 352 351 350 349 350 349 349 349 349 349 349 349 349 349 349 349 348 348 347 346 344 343 342 343 342 339 342 339 338 340 341 339 337 338 337 336 336 334 333 332 331 330 329 328 328 328 326 326 328 329 330 333 334 330 326 326 329 335 339 341 337 339 343 345 345 344 342 343 343 341 341 342 343
338 339 340 341 341 342 346 349 350 351 351 352 351 351 350 349 350 350 349 348 349 349 349 349 349 349 349 349 348 348 347 345 343 342 341 340 339 338 338 338 337 336 338 339 336 335 334 334 332 332 331 330 329 328 327 326 326 325 325 325 326 329 331 333 329 323 325 327 330 335 340 341 336 336 343 342 342 342 340 340 341 341 341 341 341
334 337 339 339 339 341 345 348 350 351 350 351 351 351 350 350 350 350 349 349 349 348 349 348 348 349 349 348 348 347 346 344 343 342 341 339 338 338 336 336 336 335 335 336 337 334 332 332 332 331 329 327 326 326 325 324 324 323 323 324 326 328 329 331 324 322 324 326 327 328 329 332 334 338 341 341 341 340 339 339 340 340 339 339 338
332 333 339 339 340 340 343 348 348 350 350 351 351 351 350 350 350 350 349 349 348 348 349 350 349 349 349 348 348 346 345 344 342 341 340 339 338 337 336 335 336 336 334 333 333 332 332 332 331 329 327 326 324 324 324 323 322 323 323 324 326 327 328 329 320 321 323 324 324 325 326 326 329 339 338 338 338 338 338 338 338 338 339 338 337
331 331 338 339 339 337 341 344 346 349 350 351 351 351 350 350 350 349 349 349 349 349 349 350 349 349 348 348 347 346 344 343 341 341 340 339 338 337 336 336 335 333 332 332 332 331 330 330 329 328 326 324 323 322 323 323 322 322 322 323 324 324 326 320 325 318 321 322 324 324 324 327 329 336 336 336 336 335 335 336 336 336 337 336 336
330 331 336 338 338 339 337 341 343 345 347 349 350 349 350 350 349 349 349 349 349 349 349 349 349 349 348 347 346 346 345 343 341 341 339 338 337 336 336 334 332 332 331 331 331 330 329 328 328 327 325 323 322 322 322 321 321 320 321 322 323 322 323 313 316 316 320 322 321 322 322 324 335 334 334 333 333 334 333 333 334 334 334 334 334
330 332 336 336 337 338 338 338 340 342 343 345 347 347 348 349 349 349 349 349 348 349 349 348 348 348 348 347 347 346 346 343 341 340 339 337 337 335 333 332 332 332 331 331 330 330 329 328 327 325 323 322 322 321 319 319 319 319 320 320 321 322 321 318 314 317 318 320 320 321 321 324 332 333 333 333 332 331 332 332 332 333 333 333 333
329 333 336 335 336 337 338 339 338 337 338 339 341 343 345 346 347 348 348 347 347 348 348 347 347 347 347 346 346 344 343 342 342 339 338 336 335 334 333 333 332 332 331 330 329 329 328 327 326 324 323 322 321 320 319 317 318 318 318 319 319 320 319 318 315 315 317 319 319 319 321 323 329 331 331 331 330 330 330 330 331 330 331 330 330
327 332 335 335 336 336 337 338 338 339 340 337 335 338 341 344 345 345 344 345 345 346 346 345 345 345 343 341 340 339 340 341 341 338 337 336 335 334 334 333 332 332 331 331 329 328 328 327 325 323 323 322 321 320 318 317 317 317 317 317 317 318 318 315 312 314 317 319 316 318 320 331 329 330 330 330 329 329 329 328 329 328 328 328 328
325 328 333 335 336 336 337 336 336 338 339 339 339 338 336 339 341 341 341 343 343 343 342 342 341 339 338 336 334 333 334 334 334 334 335 333 332 330 333 334 332 331 331 330 329 328 327 326 325 323 323 322 320 318 317 316 315 315 315 314 314 315 314 309 309 313 314 315 315 316 318 328 328 329 329 329 329 328 328 327 326 327 328 328 329
322 324 328 332 335 335 335 336 336 338 339 340 340 338 334 333 337 339 339 340 340 339 339 338 334 331 330 328 326 326 327 328 326 329 329 331 328 324 329 333 332 331 330 330 328 327 326 325 324 324 323 321 319 316 314 313 313 312 312 312 312 310 302 302 307 310 312 313 315 315 326 328 327 329 329 328 328 328 328 328 328 327 327 327 328
324 322 324 327 331 334 335 335 336 337 339 341 342 340 337 332 334 333 334 335 336 335 335 331 325 324 323 321 320 323 321 323 324 324 322 324 320 322 327 332 332 333 331 329 328 327 326 325 324 324 322 320 315 313 312 311 310 310 311 312 309 298 299 302 307 309 309 309 312 316 327 326 327 328 328 328 328 327 326 326 326 326 327 327 327
322 322 324 326 328 331 334 335 335 336 338 341 342 342 339 334 339 338 335 334 331 328 330 330 324 324 321 321 321 320 321 321 321 322 321 321 321 321 323 328 331 332 330 330 328 327 325 324 324 323 321 317 312 298 301 310 309 309 310 310 298 296 298 302 306 307 306 307 311 320 327 325 326 327 326 326 326 326 326 326 326 326 326 326 325
318 321 323 325 327 328 331 334 335 336 337 339 341 341 340 337 338 337 336 332 331 330 329 326 324 323 321 321 320 320 321 320 320 320 320 319 320 320 322 325 328 329 328 329 329 326 325 324 324 322 318 313 301 295 294 292 293 304 303 298 295 296 297 301 304 305 305 306 306 322 326 325 325 325 325 324 325 326 325 325 324 324 325 325 326
319 322 324 326 325 326 328 332 334 335 336 337 339 340 340 337 337 337 336 335 334 331 330 327 325 323 322 321 321 321 320 320 320 318 320 319 319 318 320 321 323 324 322 323 326 326 324 324 323 321 315 304 296 295 294 293 292 292 295 297 296 297 296 298 301 304 304 307 306 321 324 325 325 324 324 325 325 326 325 325 324 324 324 324 324
318 321 321 324 325 326 327 328 331 335 335 336 335 336 337 336 336 336 335 333 331 330 329 327 326 324 323 321 320 320 320 319 318 318 318 317 315 316 317 318 317 316 319 315 315 317 317 313 315 309 302 301 297 295 295 293 293 293 295 296 296 295 296 297 300 300 302 301 307 318 321 325 324 325 325 325 324 325 325 325 324 324 324 324 324
315 318 321 323 325 326 327 328 328 331 334 335 335 333 333 334 334 334 334 332 330 328 327 327 325 324 324 322 321 320 319 317 317 317 316 316 315 313 314 314 312 314 315 314 313 312 309 309 306 303 300 298 297 296 295 294 293 294 295 295 296 295 294 295 299 300 299 300 305 317 319 322 325 325 324 325 325 325 325 324 323 323 324 324 324
313 317 321 322 324 325 326 328 328 327 331 333 334 331 331 333 333 333 332 330 329 327 325 326 325 325 324 323 321 319 318 317 315 315 315 315 315 314 313 312 312 313 313 313 312 310 308 306 304 302 298 296 295 296 296 296 294 295 295 295 295 295 294 294 298 300 298 300 307 315 317 320 325 324 325 325 325 324 324 323 323 323 322 323 323
312 315 318 322 322 324 325 326 328 328 327 330 332 331 329 330 331 329 330 328 327 327 326 325 324 324 324 323 322 321 318 316 315 315 315 314 314 314 314 312 312 311 311 313 311 308 306 304 302 299 297 295 295 295 296 296 295 295 295 294 294 294 294 294 297 298 298 298 300 309 315 319 322 324 324 325 325 325 324 324 323 322 322 323 322
308 313 316 320 322 324 325 326 327 327 328 328 329 330 328 327 327 328 329 324 327 327 326 324 323 323 322 323 321 320 318 317 315 315 314 314 313 314 314 313 312 311 310 309 310 308 305 302 300 300 297 295 295 295 295 295 295 294 295 294 294 293 293 293 294 297 297 297 298 304 314 317 321 323 322 325 325 324 324 323 323 322 322 321 322
308 309 314 319 321 323 324 325 326 327 328 327 327 327 327 326 326 327 328 323 325 325 324 323 323 322 321 320 320 320 319 317 315 314 314 313 313 313 313 312 312 311 310 309 307 308 305 299 297 297 296 295 295 296 295 294 294 295 294 294 294 294 293 293 293 296 298 296 297 300 311 314 318 322 321 323 323 324 324 323 323 322 322 321 321
306 305 312 316 319 322 323 324 326 324 325 326 326 326 326 327 326 326 324 324 323 322 322 323 322 322 321 319 319 318 318 317 315 314 314 313 312 312 313 312 311 310 310 308 306 306 303 299 297 295 295 295 295 294 293 293 293 294 295 293 294 293 293 293 293 295 297 297 296 298 302 311 315 318 321 320 321 323 324 323 322 322 322 321 322
305 306 306 312 314 320 322 323 325 324 324 325 324 325 325 326 325 325 323 322 321 320 320 321 320 321 320 319 318 318 316 316 315 314 314 311 310 311 311 311 311 309 309 308 305 304 301 297 296 295 294 294 294 293 293 293 293 295 293 292 292 294 293 293 293 294 296 297 296 297 298 302 310 314 318 321 322 322 321 322 322 321 322 322 321
306 307 307 309 313 316 321 322 323 322 323 324 324 324 322 321 322 322 323 321 320 320 319 319 320 319 319 319 318 317 316 316 313 314 312 311 310 310 310 310 310 308 307 307 303 300 298 295 295 295 293 293 293 292 294 293 293 293 293 292 292 292 293 293 293 294 295 296 297 297 297 298 298 307 312 315 319 320 320 320 319 319 320 321 321
303 305 307 308 311 314 318 319 320 321 321 322 320 320 318 318 318 318 319 319 317 317 317 318 318 318 318 317 317 316 315 314 313 311 311 311 309 310 310 309 308 307 306 303 302 298 296 295 294 294 295 293 292 292 292 292 291 292 291 291 291 292 292 293 292 293 292 294 296 297 297 296 296 297 299 309 313 318 319 320 319 319 318 320 320
302 303 305 307 308 312 316 318 315 316 316 318 318 318 316 317 316 316 318 317 317 317 315 317 316 316 317 316 316 315 314 312 311 311 310 309 309 308 309 309 306 304 304 300 301 296 295 295 294 293 293 291 291 292 291 291 291 292 292 292 292 291 291 293 292 292 291 291 294 297 299 297 296 296 297 295 303 311 316 318 318 318 318 318 319
302 303 304 307 309 310 311 312 312 313 314 315 314 315 316 314 314 314 316 314 315 315 314 315 315 313 314 315 313 313 313 311 309 309 309 308 308 308 308 306 304 302 302 298 298 296 294 294 294 293 292 291 291 291 291 291 291 291 291 291 291 292 290 291 292 291 291 289 291 293 297 297 296 296 297 294 296 302 312 314 316 317 317 316 318
302 302 302 304 307 310 311 312 311 311 312 313 312 312 313 313 313 314 313 313 316 313 313 314 315 314 313 312 312 313 312 310 308 308 309 307 307 307 306 304 302 301 299 297 296 296 294 295 293 293 293 291 291 290 290 291 291 291 290 289 290 292 291 291 291 291 291 289 289 289 290 292 296 300 294 293 293 295 305 310 312 313 313 314 315
302 302 302 303 303 306 308 308 310 311 311 311 310 311 312 312 311 312 311 313 311 312 312 314 313 312 313 311 311 312 311 310 307 306 306 307 306 306 304 303 300 299 298 296 295 294 294 294 293 291 292 291 290 290 290 290 292 291 289 289 289 289 290 290 291 293 289 289 288 288 290 289 292 291 292 292 292 293 296 303 308 308 307 311 314
301 301 302 302 303 303 305 305 306 308 311 311 310 312 312 312 311 310 310 309 310 309 311 312 312 312 312 309 310 311 310 309 307 305 306 304 303 303 303 301 300 298 297 295 293 292 293 293 293 291 290 291 291 290 290 291 291 291 290 289 288 289 289 289 291 290 288 289 289 291 290 288 288 288 290 290 289 290 292 292 292 292 295 307 312
300 300 301 301 301 302 302 303 303 305 307 310 311 310 310 308 308 308 309 308 308 308 310 308 308 309 309 308 308 310 309 309 308 305 305 304 301 301 302 300 299 297 296 295 293 291 292 292 292 291 290 289 289 289 290 291 289 288 289 289 288 289 289 289 288 288 289 289 290 290 289 288 287 288 288 289 289 288 289 290 291 291 292 300 307
299 299 299 299 300 300 301 300 301 302 302 306 308 307 307 304 305 306 306 306 306 306 308 307 308 307 306 307 306 308 307 307 307 305 304 302 302 299 300 299 298 297 296 296 295 293 293 293 292 291 290 289 288 288 291 291 289 287 287 287 288 288 289 289 288 288 288 288 288 289 288 289 287 288 288 288 288 287 287 288 288 289 291 291 296
296 297 297 297 298 299 299 299 300 300 300 300 302 303 305 306 306 304 305 304 306 306 307 306 307 307 306 305 305 305 305 307 306 306 304 302 301 298 298 298 297 296 296 296 293 293 291 291 290 288 289 290 289 289 291 290 286 287 285 285 285 285 286 287 287 288 288 288 289 289 288 288 288 288 288 288 288 288 287 287 287 288 288 290 290
296 296 296 297 297 297 298 298 299 299 299 299 300 299 301 304 305 302 304 303 303 304 304 303 304 305 303 304 304 304 303 304 304 304 304 302 301 299 298 297 297 297 295 293 292 291 291 291 290 291 288 288 288 290 290 292 286 285 284 284 282 283 285 286 286 287 289 288 287 288 288 288 288 288 289 288 288 288 288 287 287 287 287 287 288
295 295 295 295 296 296 296 297 297 298 298 298 299 299 299 300 300 301 302 304 301 299 301 300 302 303 304 301 301 302 302 302 301 301 303 302 300 299 298 295 296 296 296 294 292 292 291 290 290 290 289 288 288 288 290 290 286 288 283 285 281 282 280 284 285 284 287 288 288 287 287 288 287 287 288 288 288 288 288 288 287 287 287 286 286
294 294 294 294 295 295 295 296 296 296 297 297 298 298 299 299 299 300 300 299 298 300 299 298 298 298 300 302 302 300 300 300 300 300 300 302 300 299 296 295 295 295 294 294 293 293 292 292 291 291 289 290 288 287 289 289 288 292 288 282 281 282 283 282 283 282 284 286 287 287 287 287 287 287 287 287 287 288 288 287 287 287 287 287 286
293 294 295 294 294 294 294 295 295 296 296 296 297 297 297 297 297 296 296 294 294 295 296 296 297 298 299 298 299 299 299 299 298 298 298 298 298 298 296 294 294 294 294 294 294 292 291 291 291 291 290 289 289 287 288 290 289 289 287 286 287 286 282 283 283 283 282 284 285 286 286 287 286 287 286 286 287 287 287 288 287 287 287 287 287
292 293 294 294 294 294 294 294 294 295 296 296 296 296 296 296 295 295 294 294 293 295 295 295 296 296 298 298 298 298 299 299 297 296 297 296 296 296 296 295 294 293 293 293 292 292 292 291 291 291 290 291 287 287 288 289 288 287 288 288 287 284 284 285 284 280 282 283 283 285 285 285 286 286 287 286 286 286 287 287 287 287 287 288 287
292 292 293 293 293 293 293 293 294 294 294 295 295 295 294 294 294 294 294 294 294 294 295 296 296 296 296 296 297 297 297 297 298 296 295 295 295 296 295 295 294 292 292 292 293 292 292 292 291 291 291 290 289 289 288 288 288 288 289 288 287 286 284 286 283 289 283 281 282 283 283 285 285 286 287 287 286 287 286 286 287 287 287 287 287
291 291 291 292 292 292 292 293 293 293 293 293 294 294 294 294 293 293 293 293 294 294 294 295 295 295 295 295 295 295 296 295 296 296 295 295 294 295 294 294 294 293 292 292 291 291 291 291 291 290 290 289 289 288 287 288 289 289 287 287 286 286 286 286 284 282 282 284 280 281 283 283 284 285 286 287 287 287 287 287 287 287 287 287 287
290 291 291 291 291 291 291 291 291 292 293 292 292 292 293 293 292 292 292 292 293 293 293 293 294 294 293 294 294 294 294 294 295 294 294 294 294 293 294 294 294 294 292 291 290 290 290 290 291 291 291 290 290 288 288 288 289 289 288 289 287 286 286 287 285 285 284 282 286 281 282 283 282 285 287 286 287 287 286 287 286 287 287 287 287
289 289 290 290 290 290 290 290 291 292 292 292 292 291 291 291 291 291 291 291 291 292 291 291 292 292 292 292 293 293 293 293 292 294 294 294 293 293 293 294 294 293 293 291 291 290 291 290 290 290 290 290 290 289 289 288 287 288 288 287 288 288 288 288 288 285 288 286 283 281 281 283 285 284 284 287 287 287 287 286 286 286 286 286 286
Wind_Speed
7 11 9 15 17 18 20 19 18 18 16 15 14 14 13 13 13 12 11 11 11 11 11 12 12 11 11 11 10 10 9 9 9 8 8 7 6 6 6 6 6 7 8 9 10 11 11 10 12 11 11 11 11 10 10 11 10 10 10 10 10 10 9 9 8 9 9 9 10 10 10 10 10 10 12 13 14 13 13 12 10 8 5 8 11
11 10 11 11 17 18 19 19 19 18 18 17 16 15 13 13 12 12 12 12 12 12 12 12 12 11 11 10 10 10 9 9 9 9 7 7 7 6 7 7 6 7 8 9 11 11 11 10 11 11 10 11 10 10 10 10 10 10 10 9 9 9 8 8 8 8 9 8 7 8 8 10 11 10 11 12 13 13 12 12 12 7 4 10 12
10 11 10 12 17 17 18 19 19 19 18 17 16 15 14 13 13 13 13 13 13 12 12 12 11 11 10 10 10 9 9 9 9 9 9 8 7 7 7 7 7 8 9 9 11 11 11 12 11 10 10 10 10 10 10 10 10 10 9 9 8 8 7 7 7 7 7 6 7 8 8 7 10 11 11 12 12 12 10 9 9 8 7 12 11
11 10 10 13 16 17 17 17 18 18 18 17 16 15 14 14 13 13 14 14 14 13 12 11 11 11 11 10 10 9 9 8 8 9 9 9 8 8 7 8 8 9 10 10 9 11 11 11 10 9 10 10 9 9 9 9 9 9 9 8 8 8 7 7 7 6 6 5 5 6 3 3 5 9 10 11 12 13 12 11 9 11 13 12 12
11 9 10 11 12 15 17 17 17 17 17 17 17 16 16 15 14 14 14 13 14 13 12 11 11 11 10 10 9 9 9 9 9 9 9 9 9 9 8 8 9 9 9 10 9 9 10 10 8 8 8 9 9 8 8 8 8 8 8 8 8 7 7 7 7 6 6 6 5 2 1 1 3 8 9 10 11 11 10 11 11 11 11 12 12
9 9 9 9 10 12 17 17 17 18 19 18 17 16 16 15 15 15 14 14 14 13 12 12 11 11 11 10 10 10 11 11 12 11 11 11 8 8 8 8 8 8 8 8 8 9 9 9 8 7 7 8 8 8 7 8 8 7 7 7 6 6 6 6 8 8 7 5 3 2 3 1 2 4 9 8 10 9 9 11 12 12 10 12 12
10 8 9 9 8 11 16 17 18 17 19 18 17 17 17 16 15 15 15 14 14 13 13 13 12 11 10 10 10 11 12 12 12 11 11 10 9 9 9 8 8 8 9 8 8 9 9 8 6 6 7 7 7 7 7 7 7 7 6 6 6 6 5 5 6 8 8 5 3 1 5 0 2 3 9 8 9 11 11 11 11 12 12 11 11
7 8 9 8 7 11 15 17 18 17 19 18 17 17 17 16 15 15 15 14 14 14 13 13 12 11 11 11 12 13 13 13 12 11 12 11 9 8 8 7 7 8 7 7 7 6 5 6 4 4 5 6 6 6 7 6 6 6 6 6 6 6 5 6 7 7 8 4 3 5 4 2 4 5 10 10 12 11 14 13 13 12 13 12 9
8 8 9 8 7 13 14 16 17 19 19 18 16 16 16 16 14 14 15 14 14 14 13 13 12 12 12 12 13 13 13 12 11 11 11 10 8 8 7 7 5 4 5 6 5 4 4 5 3 2 3 5 5 6 6 6 6 6 6 5 6 6 6 6 7 7 5 3 2 5 4 3 3 4 10 12 14 14 13 10 10 13 13 10 10
8 8 9 8 7 12 14 14 17 19 19 18 16 16 17 16 14 15 14 14 14 13 13 13 12 12 13 13 14 14 13 12 12 10 10 11 8 4 7 6 4 4 6 5 4 4 3 3 3 2 2 4 5 5 5 5 5 5 5 5 6 7 7 7 7 5 3 3 4 4 4 5 4 4 9 12 12 13 12 10 8 7 7 10 9
10 9 8 9 9 13 13 14 15 15 17 17 15 16 17 16 15 15 14 14 13 13 13 13 13 13 13 14 14 14 13 12 12 12 10 9 7 6 5 5 4 1 2 5 4 3 2 3 1 1 1 4 4 4 5 5 5 5 5 5 6 7 7 7 5 4 5 6 5 5 6 8 4 4 9 10 10 11 11 10 9 8 9 9 9
9 9 9 8 12 15 14 14 14 15 15 15 15 16 16 15 15 16 15 14 14 14 14 13 12 13 14 15 14 13 12 11 12 10 10 10 7 5 5 1 4 2 3 3 6 3 2 1 2 2 2 4 4 4 4 5 5 5 5 5 6 7 7 7 5 6 6 6 6 4 4 3 3 6 10 9 9 9 9 8 8 8 8 6 6
7 8 9 8 11 15 15 15 14 15 14 14 16 16 16 15 15 15 15 15 14 14 13 11 11 14 15 14 14 13 12 12 12 12 10 10 9 8 6 5 5 6 5 3 4 2 3 3 3 2 3 4 4 4 4 4 5 5 5 6 6 8 7 7 4 6 6 6 5 5 4 3 2 8 8 8 7 7 8 8 7 7 7 7 6
8 5 8 8 9 16 17 15 14 14 14 14 17 14 15 14 15 15 15 14 13 13 11 11 11 13 14 14 14 13 12 13 13 12 11 10 9 8 6 6 7 4 5 4 4 3 3 4 3 3 3 4 4 4 4 4 5 5 5 6 7 8 8 5 5 5 5 5 5 5 4 3 3 6 8 7 6 6 5 6 6 6 6 6 7
8 6 6 8 9 12 19 16 14 14 13 14 15 13 14 13 14 13 13 13 12 12 11 11 13 12 14 14 13 11 11 11 13 12 11 10 9 8 6 6 4 5 4 4 5 4 4 4 4 3 4 4 4 4 4 4 5 5 6 6 7 7 7 3 4 5 5 4 4 4 5 3 7 8 6 6 5 5 5 4 5 5 5 6 6
7 7 7 7 8 9 11 14 16 14 13 13 13 13 13 13 13 13 13 12 11 12 11 12 13 13 13 13 11 11 10 14 13 12 11 10 9 8 7 6 6 6 6 7 5 5 5 5 5 4 4 4 4 4 4 4 5 5 6 6 6 7 8 4 4 5 5 5 4 4 4 3 8 8 8 7 6 6 5 5 5 5 5 5 5
6 7 7 7 8 8 9 9 11 15 12 12 12 13 13 13 13 13 12 12 12 11 11 12 12 12 12 12 11 10 12 12 12 13 12 11 10 8 8 7 7 7 6 6 6 6 5 6 5 4 5 4 4 4 4 5 5 6 5 6 7 7 7 4 5 5 5 4 4 4 4 3 6 8 7 7 6 6 4 4 5 4 4 4 5
5 7 7 7 8 8 8 8 9 9 8 10 12 13 13 13 13 13 12 12 11 12 12 12 12 11 10 9 8 9 12 11 10 13 11 10 9 8 7 8 8 7 6 6 6 6 6 6 6 5 5 5 5 4 5 5 5 6 5 6 7 7 7 6 5 5 5 4 4 3 4 4 7 7 7 7 7 6 5 5 6 5 5 5 6
1 5 6 8 8 8 8 7 8 7 8 7 7 10 13 13 14 13 12 13 12 11 12 11 10 9 9 8 7 7 10 10 12 12 11 10 9 7 6 7 8 8 8 7 7 7 7 7 7 6 6 6 5 5 5 5 6 6 6 6 6 6 7 6 4 5 4 4 4 4 4 3 5 6 6 6 7 7 7 6 6 6 6 7 7
0 3 5 6 7 8 8 8 8 8 8 8 8 8 11 13 13 14 13 13 13 11 12 10 9 9 8 8 9 6 7 9 12 10 12 11 10 7 7 5 7 8 8 8 8 8 8 8 7 8 7 6 5 5 5 5 6 6 6 6 6 6 5 5 4 5 5 4 3 4 5 5 5 6 6 6 6 7 7 7 7 7 7 7 7
2 3 4 5 7 9 10 8 9 10 9 9 8 9 10 14 12 14 14 14 13 12 11 11 9 8 8 8 8 5 5 5 7 6 10 7 9 9 8 6 6 6 8 8 9 9 9 9 8 9 8 7 6 5 4 5 5 5 6 5 5 4 4 5 5 4 3 3 4 4 6 3 5 6 6 6 5 6 5 6 6 7 7 7 7
6 6 5 5 7 9 11 10 9 11 10 9 8 8 8 12 11 10 10 11 11 10 9 8 7 5 8 7 5 5 5 5 6 7 6 7 8 10 9 8 6 5 6 8 9 9 9 9 9 9 9 8 6 2 2 3 3 4 5 5 3 3 4 5 5 4 3 3 3 5 7 2 4 6 6 5 5 5 6 6 7 7 6 6 6
6 6 7 7 7 7 8 10 11 11 11 11 9 8 9 8 9 10 9 10 9 9 7 7 6 7 6 6 6 6 5 5 6 7 6 9 8 10 10 9 7 6 7 7 8 9 10 10 10 10 10 8 3 2 1 1 1 3 4 3 2 3 4 5 4 5 4 2 3 5 6 3 3 5 5 5 6 6 6 6 6 6 7 7 7
9 9 10 7 7 8 8 10 11 11 11 10 9 9 9 8 8 8 8 8 8 8 8 7 7 7 7 7 6 6 6 6 7 11 9 6 7 9 10 10 8 7 8 6 8 8 10 11 10 11 7 4 3 2 2 1 1 1 2 1 2 2 3 4 4 4 3 3 2 5 6 2 3 5 6 6 6 6 7 7 6 6 5 5 6
10 8 6 8 9 9 7 7 8 10 11 9 9 9 9 9 8 8 8 8 8 8 7 7 7 8 8 7 7 6 6 6 6 6 6 6 5 5 5 6 5 4 7 4 4 4 4 3 5 6 5 4 3 3 2 2 1 0 0 0 1 2 3 3 4 4 4 2 1 4 4 5 2 6 7 7 7 7 7 7 6 6 6 6 5
4 6 10 9 10 10 10 9 7 9 11 10 10 9 10 9 9 9 9 8 8 8 7 8 7 8 8 7 7 7 7 7 6 7 6 7 6 6 6 6 5 5 4 6 6 5 4 5 5 5 4 3 3 3 3 3 3 1 1 2 2 1 3 3 4 3 3 2 1 4 4 5 3 7 7 8 8 7 7 8 7 6 6 6 7
6 9 8 9 10 9 10 9 9 7 10 9 8 7 8 8 9 9 10 9 8 8 8 8 8 8 8 8 8 7 7 7 7 7 7 7 7 6 6 6 6 6 6 6 6 5 6 6 5 4 4 3 3 4 3 3 2 3 3 3 2 2 2 3 4 3 2 2 2 4 4 4 5 3 7 8 9 8 8 7 7 7 7 7 6
5 8 8 8 9 12 11 10 10 8 7 8 9 8 7 7 8 8 9 9 9 8 8 8 7 8 9 8 9 8 8 7 7 7 7 7 7 7 6 6 6 6 6 6 7 6 6 6 5 4 4 3 3 4 3 3 3 4 4 3 3 3 3 4 4 3 3 1 1 3 4 4 4 5 7 8 8 8 8 8 8 7 8 8 7
7 7 7 7 10 10 9 11 10 11 9 8 8 8 6 6 7 8 9 8 9 8 8 7 7 7 7 9 9 8 7 8 8 8 7 7 7 8 7 7 7 6 6 6 7 7 6 6 6 5 4 4 4 4 4 4 4 3 5 3 4 4 3 4 4 4 3 2 1 2 3 3 4 4 4 8 8 9 8 8 8 8 7 6 8
10 7 5 8 7 8 10 11 11 10 9 7 8 8 8 8 8 8 8 7 8 8 6 7 7 7 7 7 8 8 9 8 7 6 8 7 7 7 7 7 7 7 7 7 6 7 7 6 6 5 5 5 5 5 4 4 4 4 4 4 4 4 4 4 4 5 4 3 2 1 3 3 4 4 2 6 7 7 9 8 8 8 8 7 7
4 4 5 6 6 6 8 9 9 7 6 8 7 8 7 8 8 7 7 8 7 6 7 7 7 7 7 7 6 6 7 7 8 8 7 7 7 7 7 7 7 8 7 7 6 7 6 7 7 7 6 6 6 5 6 5 4 4 4 4 5 4 4 4 3 4 4 3 3 1 1 4 4 5 4 3 5 7 9 8 7 8 9 9 9
3 5 6 2 4 7 8 8 8 7 7 7 6 6 6 7 5 6 6 6 6 6 7 7 7 7 6 7 7 7 7 6 7 7 8 7 7 7 7 7 8 7 7 7 7 6 7 6 6 6 5 5 6 4 4 6 5 5 4 4 4 5 5 4 4 5 4 4 3 2 1 1 4 5 6 5 6 5 2 7 6 7 9 9 9
5 5 4 1 5 5 6 7 7 5 6 7 7 5 4 3 5 5 5 4 5 5 6 6 6 6 6 7 7 7 6 7 7 7 7 7 7 7 7 8 7 7 7 7 7 6 6 7 6 5 6 5 5 4 4 5 5 5 5 4 5 5 5 4 4 5 5 4 5 3 2 1 2 5 6 6 5 6 5 4 3 2 5 9 10
9 8 2 3 2 3 3 4 5 6 7 5 4 4 4 3 3 3 3 4 5 5 5 5 6 6 6 6 7 6 6 6 7 6 6 6 6 7 7 7 7 7 7 7 8 7 7 7 7 7 7 7 7 6 6 6 4 4 4 4 4 6 5 5 5 6 5 5 5 4 3 2 2 2 3 5 6 5 5 5 4 2 2 6 8
11 11 10 5 3 1 2 3 4 4 4 4 4 4 3 3 3 3 3 4 4 4 4 4 5 5 6 6 6 6 6 6 6 7 6 6 6 6 7 7 7 7 8 7 8 7 7 8 7 8 6 7 7 7 7 7 6 7 6 5 6 5 4 5 5 4 4 4 5 4 5 3 2 2 2 3 4 6 5 4 3 2 2 4 7
12 11 11 10 9 5 5 4 3 3 3 3 2 3 3 3 3 4 4 3 3 3 4 4 4 4 4 5 4 5 5 5 5 6 7 6 7 7 7 6 6 7 7 7 7 9 7 7 7 8 8 7 7 6 6 7 6 6 5 6 6 5 5 4 5 4 4 3 5 5 5 5 4 3 3 3 2 3 5 5 4 4 3 3 7
12 14 13 13 12 10 10 9 7 5 3 2 3 3 3 3 3 3 3 4 4 4 4 4 4 4 4 5 4 5 5 5 5 5 6 6 6 6 6 6 5 6 7 7 8 7 8 7 7 7 8 8 8 7 5 7 7 6 5 5 5 5 6 5 5 5 3 4 4 4 4 4 4 5 4 3 3 2 3 4 4 5 5 3 4
12 13 13 13 10 9 8 9 8 6 5 3 3 4 3 3 4 3 3 3 3 3 3 4 4 4 5 5 5 5 6 5 5 5 5 6 6 6 5 5 6 6 6 6 7 6 6 8 8 6 7 8 8 9 8 6 6 5 4 5 5 4 5 5 5 4 5 4 4 4 4 4 5 4 4 4 3 3 2 2 3 3 3 3 2
11 13 14 13 12 11 10 10 10 9 7 6 5 6 6 5 6 6 5 4 3 3 3 3 3 4 4 4 5 5 5 5 5 5 6 6 5 5 5 5 6 7 6 6 5 5 5 6 9 8 5 7 9 9 8 7 6 4 4 4 4 2 3 4 4 4 5 5 5 4 3 5 4 4 4 4 4 3 4 2 2 1 0 3 2
13 13 15 15 15 14 12 12 11 10 7 6 6 6 6 6 6 5 6 5 3 3 4 2 1 2 3 4 4 4 4 5 5 5 5 6 5 6 6 5 6 6 7 7 7 7 9 9 9 10 8 4 3 6 6 7 4 4 2 1 0 1 2 2 4 5 5 5 5 4 6 4 4 4 4 5 5 4 4 4 3 4 2 1 2
14 15 15 14 14 12 12 12 10 11 10 9 7 6 5 4 3 5 2 2 3 3 3 3 2 1 2 2 3 4 4 4 5 5 6 6 6 6 6 5 6 7 8 9 8 9 8 7 7 5 9 7 5 4 6 8 8 2 2 1 1 1 1 1 3 4 5 5 4 6 5 5 4 5 5 5 5 4 4 5 4 4 4 3 2
15 14 14 13 13 13 12 11 11 11 10 8 7 7 5 2 3 3 1 2 4 2 1 1 1 0 1 2 3 3 4 5 5 5 5 6 6 6 6 8 7 7 8 6 6 6 5 5 5 5 5 9 8 8 9 9 4 8 6 3 2 3 3 3 5 5 4 4 5 6 6 6 6 5 4 5 5 5 5 5 4 4 4 4 4
11 13 12 13 13 11 11 9 10 10 10 10 8 6 5 5 5 4 6 3 3 3 3 2 3 3 2 1 1 2 3 4 4 4 5 5 6 6 7 7 7 7 7 6 6 7 8 8 8 9 6 4 4 5 9 11 7 4 3 4 3 3 3 4 6 6 5 5 4 6 6 6 7 5 6 6 5 5 4 5 5 5 4 4 4
12 12 12 12 10 11 11 11 10 9 9 10 9 7 6 4 3 4 4 5 2 3 4 5 5 4 3 2 1 1 2 3 3 4 4 4 5 6 5 5 6 6 8 8 7 9 8 7 7 8 7 7 5 8 8 10 6 11 4 7 3 4 3 9 11 4 7 7 6 7 5 6 5 5 5 7 6 6 6 5 5 6 5 5 5
11 11 11 11 9 11 11 11 10 10 9 11 10 8 9 9 8 9 8 7 7 8 8 8 7 4 3 3 1 1 2 3 3 4 4 5 4 4 4 5 5 6 6 7 8 10 9 9 11 10 9 10 9 6 8 8 8 13 8 6 2 1 8 3 3 5 3 6 8 6 6 6 7 7 6 7 5 6 6 6 6 5 6 6 5
12 10 9 10 11 11 12 12 11 11 11 11 11 8 8 7 7 7 7 6 6 7 6 4 6 7 6 3 2 0 1 1 2 3 4 4 4 5 4 4 4 5 5 7 7 6 7 8 9 9 9 9 9 5 6 9 9 9 5 4 6 8 5 4 3 5 0 4 4 6 7 7 6 7 7 7 7 7 6 7 6 7 6 6 6
10 9 10 11 12 11 11 11 11 10 11 11 12 10 9 7 6 5 5 6 6 4 2 3 4 6 5 4 2 2 0 2 2 2 3 4 4 4 4 4 4 4 4 5 6 7 7 8 7 8 10 9 5 8 10 11 7 7 8 9 1 1 5 8 7 3 2 2 4 7 7 5 6 7 8 8 8 8 7 7 8 8 7 7 7
7 8 10 10 12 12 12 12 10 10 10 10 11 10 8 8 9 7 7 7 6 4 5 5 4 5 7 7 5 3 2 2 3 3 3 4 4 4 4 4 4 4 4 5 7 6 6 5 6 8 8 8 9 10 9 7 12 11 11 12 8 2 1 1 2 10 5 4 5 2 3 6 6 7 8 9 9 10 9 8 8 8 7 7 7
9 9 8 8 9 10 11 11 12 11 11 13 12 12 10 8 8 8 8 7 7 7 6 7 7 7 7 7 7 6 4 3 3 4 4 4 4 4 4 4 4 5 4 5 5 5 7 7 7 7 8 8 8 8 6 9 9 11 7 10 7 8 4 2 0 2 6 5 4 5 7 2 3 7 9 9 8 9 10 10 9 9 8 8 8
7 7 8 8 9 9 10 12 12 10 11 13 12 12 11 9 10 10 10 9 8 8 7 9 8 8 8 8 7 8 8 6 4 4 4 4 4 4 4 4 5 5 4 4 4 5 5 6 7 8 9 10 8 8 10 8 8 8 8 8 10 8 4 4 3 3 1 3 8 8 8 11 10 11 11 9 13 11 9 9 9 9 9 8 8
7 8 8 7 7 8 8 11 11 10 12 12 11 11 10 10 10 10 10 10 10 9 9 10 9 9 9 9 8 8 7 7 7 6 4 4 4 4 4 5 5 4 4 4 5 6 6 7 7 7 8 10 9 9 9 8 7 8 9 8 10 11 13 13 11 7 8 6 3 5 4 10 13 9 8 13 11 10 9 8 10 10 10 9 8
Wind_Direction
196 167 173 173 168 166 167 166 164 163 164 164 162 160 158 157 152 151 149 146 145 144 142 142 140 141 137 134 132 130 129 128 127 124 120 116 111 107 112 114 120 127 121 120 116 103 95 86 86 84 81 77 73 71 71 72 74 73 71 68 61 59 58 53 51 52 49 51 71 69 67 67 68 71 70 70 77 76 71 67 67 67 59 65 68
171 168 169 172 170 167 167 166 166 166 164 166 164 162 161 158 155 155 152 151 150 149 149 145 146 144 142 140 140 140 141 138 136 132 129 124 122 117 113 117 123 121 124 118 112 107 99 91 80 80 80 76 72 70 69 67 66 68 67 65 61 57 50 50 47 42 42 48 47 58 61 73 71 73 72 71 74 74 75 74 72 69 60 70 69
149 161 167 172 171 167 167 167 166 167 167 166 164 164 162 160 158 157 157 155 155 153 153 150 152 148 150 148 150 152 150 149 144 141 138 136 130 122 120 115 113 113 107 113 110 103 94 84 79 77 77 75 73 70 67 66 64 63 62 59 56 51 44 37 38 39 42 37 49 45 36 54 75 74 77 78 75 68 65 68 72 74 67 70 68
149 164 165 170 172 168 167 167 167 168 168 167 166 163 161 161 160 161 161 159 158 157 157 157 157 159 157 160 162 160 153 145 144 143 139 135 129 124 119 116 112 114 114 110 110 101 89 85 81 79 77 77 75 72 72 69 67 66 65 62 55 42 32 21 20 29 25 12 11 15 24 10 60 79 79 80 80 74 68 59 58 68 67 66 70
152 160 165 169 172 171 169 167 168 170 169 166 166 164 162 163 163 165 164 164 162 161 162 163 166 165 168 170 165 155 148 139 130 124 128 122 127 121 116 120 122 116 117 114 113 105 92 84 81 80 81 81 78 76 73 71 70 66 65 64 61 49 30 11 2 7 6 12 359 67 343 348 68 76 79 86 85 83 78 76 71 69 60 63 67
152 157 164 168 171 173 170 168 168 170 170 168 166 166 166 165 165 168 169 167 167 165 168 170 175 176 176 171 164 153 144 138 132 131 116 112 111 113 118 119 120 117 116 112 105 100 92 83 79 78 77 79 80 77 75 70 69 66 62 61 60 57 41 12 353 356 356 339 359 296 166 225 92 84 85 84 95 92 88 84 80 73 65 59 60
149 158 162 169 172 175 172 168 170 170 170 170 169 169 168 168 168 171 173 172 172 171 172 177 180 181 177 170 156 153 148 141 134 125 120 112 113 114 115 116 118 111 107 101 100 90 88 88 74 73 78 75 76 75 71 71 67 63 59 57 56 51 40 18 357 351 342 352 354 97 99 70 85 76 84 79 80 79 84 87 84 81 71 65 55
143 157 166 168 171 178 174 171 171 171 172 171 170 171 170 171 171 175 175 175 177 176 178 181 185 182 176 168 160 157 150 151 135 135 126 117 113 107 116 120 115 116 103 103 95 88 84 89 81 64 77 77 75 76 74 71 65 60 55 52 53 46 34 16 2 349 340 13 23 88 109 133 101 87 84 84 81 80 74 74 77 77 73 62 51
153 160 164 168 173 177 179 173 172 174 173 173 172 172 171 173 172 177 178 178 182 182 184 185 187 181 175 171 163 159 165 153 144 143 129 123 123 123 114 97 72 66 122 120 112 95 87 88 88 69 71 85 81 80 79 72 67 57 52 50 48 46 32 19 359 351 351 28 82 108 110 105 90 98 87 87 82 79 71 63 63 65 68 66 62
156 161 166 164 174 179 180 178 174 177 176 175 173 172 172 174 173 178 182 185 186 186 188 188 187 182 175 170 165 167 165 155 148 144 151 138 137 139 144 84 76 43 13 162 136 128 129 96 97 73 66 87 82 79 78 73 68 63 56 49 47 42 31 13 7 3 10 32 72 80 88 83 74 80 97 86 81 79 74 72 76 75 69 61 55
157 162 165 166 170 177 182 182 177 179 179 174 175 172 174 176 175 179 184 186 189 191 191 189 190 185 174 170 171 174 168 163 143 143 144 141 150 170 170 148 113 56 95 358 168 153 157 164 145 116 81 80 81 78 72 72 68 64 62 57 52 43 25 20 38 33 28 45 66 85 88 84 88 88 95 90 81 75 76 71 66 76 84 78 70
156 162 166 163 169 174 183 184 180 180 181 174 177 176 178 175 177 180 184 186 191 193 195 191 191 185 176 173 176 177 171 156 147 142 140 144 159 173 147 190 158 160 251 214 215 214 168 158 152 152 102 89 80 75 72 68 67 68 68 61 56 38 23 34 49 48 50 58 60 48 47 55 86 101 97 95 87 78 78 79 78 66 61 68 75
173 155 168 160 168 176 181 184 182 182 181 177 179 180 180 179 179 183 185 187 191 194 194 191 191 185 176 175 178 175 173 169 151 149 148 146 144 145 166 165 165 194 223 239 310 224 193 181 172 167 128 97 90 80 75 72 75 70 67 65 48 31 18 33 46 54 60 63 61 49 48 43 38 108 106 95 85 79 75 74 72 70 67 63 55
180 150 161 163 168 176 178 182 183 183 183 178 182 182 183 181 183 187 188 189 191 192 193 187 182 185 177 177 180 176 170 167 157 158 155 153 152 160 168 179 220 222 198 199 203 200 168 170 159 161 122 105 94 86 86 82 78 78 72 62 44 31 22 24 33 54 65 72 63 52 42 37 40 114 97 87 91 87 81 71 72 70 64 61 63
171 155 155 160 167 176 177 179 181 183 183 179 182 183 183 184 185 187 189 193 191 190 191 182 179 181 178 180 179 177 177 164 158 163 158 158 160 167 192 209 212 187 198 200 194 168 162 171 171 147 118 109 104 99 88 84 74 71 70 57 42 27 22 23 32 57 65 67 61 55 34 21 75 78 94 104 97 89 74 73 73 70 66 69 66
166 150 145 158 164 169 179 179 177 180 183 181 180 183 185 185 184 187 190 192 190 189 188 180 178 178 181 181 179 177 167 156 163 163 162 161 163 173 183 186 188 186 190 194 185 162 171 162 149 143 125 128 122 104 93 86 81 74 67 56 38 30 28 53 59 61 71 73 64 57 37 23 80 83 87 91 97 83 76 74 69 76 79 74 66
155 144 143 156 162 167 174 180 179 177 180 182 180 183 186 185 185 186 193 191 188 187 182 181 179 182 183 180 176 161 158 164 167 161 159 161 165 167 173 181 180 185 186 185 173 173 163 153 150 155 139 140 129 114 98 85 84 78 70 56 43 30 37 61 68 58 69 73 69 49 33 20 81 90 92 92 83 82 89 82 85 86 83 74 71
157 142 153 157 162 168 173 174 175 176 176 180 183 183 184 184 185 185 189 189 188 184 179 182 184 187 181 176 167 159 165 167 156 154 155 157 162 162 166 178 184 182 181 172 178 166 168 161 166 159 149 143 131 119 103 94 86 83 74 58 39 29 45 52 60 70 68 63 59 46 24 44 82 91 95 96 98 102 106 105 93 90 87 81 97
162 148 152 156 168 167 170 173 179 178 177 177 180 187 184 184 183 185 184 184 187 184 180 185 189 181 171 165 159 162 164 154 150 151 151 150 147 143 159 179 186 185 181 180 181 178 175 171 171 161 152 145 133 120 109 100 96 96 84 54 36 33 44 53 67 78 76 66 49 37 8 48 101 99 101 99 108 114 108 111 111 103 102 116 113
14 203 149 171 167 170 171 177 181 185 183 181 183 182 186 184 184 184 183 184 184 181 176 180 183 178 167 159 151 148 150 155 152 153 151 148 143 141 144 168 184 185 183 186 179 184 177 179 180 159 155 147 134 117 113 111 105 100 75 50 39 46 46 56 79 78 75 65 53 30 6 359 135 114 106 110 114 115 119 118 117 113 115 112 115
223 237 195 177 175 174 178 178 187 187 186 184 187 185 185 182 183 184 183 183 182 176 170 170 170 171 163 155 143 136 136 144 147 150 150 146 146 143 143 163 182 186 181 186 181 178 181 182 182 161 155 142 116 108 112 113 110 96 66 45 43 50 53 72 80 83 71 59 45 14 7 9 123 126 122 121 121 125 124 118 122 124 115 112 113
210 222 233 198 181 185 184 185 186 191 187 185 188 187 184 183 181 182 183 182 181 176 170 165 165 160 156 153 150 146 147 148 148 147 149 152 148 147 150 158 181 184 177 184 185 173 183 182 182 162 145 123 110 84 52 75 96 80 52 41 46 52 60 82 84 81 72 53 42 7 9 84 135 126 130 122 123 130 140 136 126 123 121 119 115
226 225 228 214 202 190 187 187 190 190 188 188 189 188 183 184 183 181 181 181 179 177 173 166 163 161 162 162 158 157 156 155 152 156 155 159 155 152 156 163 176 178 173 177 177 176 181 186 184 158 139 129 115 132 123 95 89 54 46 49 87 74 71 89 91 88 82 68 30 13 17 88 132 141 136 139 141 153 142 126 125 131 136 144 146
212 206 208 209 203 202 196 192 190 187 187 191 187 187 185 182 185 184 180 181 181 180 176 171 168 166 166 165 163 162 160 159 159 155 147 152 157 154 160 166 172 167 164 159 166 176 182 188 185 151 132 127 143 164 148 138 132 30 34 53 90 57 81 110 108 107 95 67 34 24 22 53 149 159 157 158 159 154 145 143 140 126 120 127 131
208 204 204 206 205 205 202 198 193 188 190 191 188 188 184 182 187 184 182 182 182 182 178 174 173 171 169 167 168 162 160 160 158 155 155 151 149 155 159 162 151 161 152 145 140 155 153 145 129 123 144 151 151 183 150 152 199 13 340 264 108 79 98 104 113 109 107 89 42 37 16 10 206 185 170 161 165 170 153 148 144 141 138 135 134
189 185 204 205 206 203 198 201 188 193 192 191 193 187 181 188 187 186 185 188 185 184 179 178 178 176 171 170 164 164 164 157 161 161 158 156 156 162 163 155 150 161 153 147 141 129 123 129 137 146 178 175 173 188 191 166 199 218 205 216 133 97 100 99 106 105 111 92 31 36 18 353 313 198 174 166 167 174 157 153 151 142 142 146 151
198 211 198 203 202 199 201 197 198 192 197 192 193 181 191 191 187 186 186 192 186 183 188 185 182 174 173 170 167 171 171 164 164 167 164 161 163 164 164 161 161 161 164 148 151 144 142 149 150 169 190 209 210 201 191 192 167 161 182 173 143 144 126 104 112 120 122 95 36 28 11 354 355 216 185 182 172 175 178 159 155 158 157 153 145
184 213 205 200 193 201 197 191 200 195 196 195 192 190 188 187 187 185 193 190 185 191 192 192 178 176 177 175 172 171 171 172 173 171 171 163 168 166 163 163 162 167 165 157 154 153 152 155 160 176 195 226 213 179 159 157 164 156 143 131 140 138 134 129 134 139 143 116 58 6 11 358 345 338 198 181 185 178 177 175 165 155 171 161 155
209 217 210 192 201 198 191 196 197 199 193 183 193 194 180 183 181 187 195 183 190 193 192 185 184 182 181 178 173 175 176 174 176 177 160 172 165 167 167 170 166 170 161 170 163 163 164 164 172 184 195 207 197 168 140 138 140 145 138 135 140 139 140 134 136 145 143 143 114 19 17 350 351 344 214 192 181 187 175 181 169 171 162 175 155
213 211 189 206 197 191 190 195 196 199 196 183 192 184 186 182 188 190 192 181 193 190 182 186 189 180 185 186 185 175 177 178 173 168 169 174 170 168 169 171 171 170 171 174 178 166 170 169 174 185 185 191 180 179 147 152 149 152 146 148 155 157 161 156 145 150 158 153 150 64 17 5 356 4 225 191 188 191 194 191 186 167 165 192 177
208 204 203 210 196 181 196 196 197 192 187 197 197 197 184 192 187 188 185 189 183 177 186 186 187 188 184 182 183 181 174 173 170 170 176 168 170 170 178 168 173 181 179 176 171 175 169 174 178 181 181 182 181 171 157 159 167 169 171 157 176 151 170 177 153 145 151 166 158 148 34 32 21 16 23 172 198 204 200 186 186 180 179 181 182
303 239 215 195 157 192 194 195 192 185 184 199 197 202 201 203 188 178 187 192 178 178 183 185 190 190 183 178 178 179 175 175 169 171 172 170 172 176 175 177 186 178 182 176 171 174 172 175 173 173 174 170 168 167 165 152 168 176 171 171 166 162 170 172 158 153 155 159 164 156 118 53 38 41 37 69 95 84 137 180 187 204 192 188 190
320 285 292 154 193 191 185 196 185 175 185 194 197 204 198 193 188 195 188 171 183 177 178 185 186 184 181 178 178 175 177 171 176 171 173 174 172 173 178 188 183 177 181 177 166 167 165 163 172 164 160 160 157 175 163 156 158 181 170 178 165 166 175 158 156 146 158 166 168 160 147 111 69 53 53 45 65 92 99 112 135 184 215 195 198
359 346 337 224 220 158 172 163 167 173 190 192 177 181 187 178 167 178 176 163 175 177 177 177 176 175 176 177 174 173 175 171 165 172 171 174 177 180 182 189 184 178 174 168 173 172 171 167 173 162 171 166 175 177 164 169 185 175 179 185 168 175 168 162 166 166 161 166 169 164 169 149 113 89 56 49 42 72 102 98 89 94 240 219 202
11 4 358 329 28 52 107 136 155 162 166 177 171 179 162 149 145 146 155 166 166 166 157 154 163 170 165 172 172 168 169 167 170 165 176 173 178 188 191 192 180 173 173 179 170 175 168 177 166 170 169 173 176 175 171 173 172 181 190 180 178 178 164 169 169 172 172 164 162 174 170 162 154 117 88 67 40 37 59 94 120 125 170 191 170
17 10 13 18 29 23 50 84 110 126 165 165 147 150 157 145 132 137 142 142 139 151 153 152 149 145 152 160 162 162 166 165 167 166 170 181 183 191 198 181 180 173 176 173 170 176 178 173 183 165 165 183 171 183 171 169 176 182 192 179 184 175 164 159 171 176 191 149 166 171 174 171 171 155 136 107 84 53 50 60 76 83 98 167 173
20 24 21 22 23 19 29 34 31 36 57 90 93 96 118 126 123 130 141 136 140 148 148 136 130 133 139 144 148 157 167 164 169 172 170 182 189 194 191 184 175 175 176 180 183 178 170 174 181 186 173 171 178 174 178 173 177 184 183 175 183 167 163 171 174 182 160 163 180 166 155 178 180 168 154 145 126 94 71 63 57 45 24 15 187
22 27 30 34 32 17 25 32 24 34 33 49 67 69 66 74 69 77 85 103 127 140 136 134 138 140 141 152 159 161 170 172 168 170 177 184 188 190 183 181 175 179 182 182 195 174 173 166 178 194 180 163 179 177 182 178 169 172 179 179 189 165 177 179 185 180 165 185 198 181 182 172 169 164 166 162 162 150 117 94 83 58 16 356 187
22 26 32 32 33 27 19 19 22 17 25 31 42 52 49 50 53 46 47 42 49 63 95 127 144 140 142 154 164 165 175 175 171 166 175 180 185 185 181 186 179 182 179 186 189 181 176 180 176 190 202 192 178 183 173 163 160 156 164 190 171 174 196 194 180 178 189 189 191 199 164 179 172 156 166 168 173 165 160 142 125 118 343 338 222
26 26 30 30 28 26 25 23 14 9 17 28 30 33 43 40 41 16 37 20 24 41 25 54 74 113 132 152 169 175 180 180 181 175 180 181 182 189 191 185 187 176 183 187 194 187 190 187 195 181 187 207 195 165 145 138 108 111 128 67 70 113 158 192 186 195 198 191 196 176 183 196 187 186 169 177 174 180 179 180 177 180 198 264 323
31 27 32 29 30 29 28 22 13 21 20 8 19 33 30 12 31 51 55 3 45 18 26 12 39 45 136 144 168 186 184 187 191 179 192 186 194 189 186 192 186 188 194 202 194 199 202 196 190 187 176 180 198 178 171 144 135 90 20 24 311 315 290 232 215 220 214 208 202 187 197 183 204 199 193 171 178 182 188 189 193 191 197 206 244
24 26 30 28 27 28 30 23 16 18 21 14 9 33 15 46 87 24 49 27 21 22 349 336 312 49 121 149 178 182 183 195 200 198 198 193 197 193 193 196 186 197 205 199 195 200 195 196 172 195 216 186 195 183 176 132 187 176 152 221 300 312 294 296 259 243 228 227 208 201 190 192 199 203 200 172 180 187 192 191 187 191 198 198 217
28 28 23 27 24 25 24 24 23 21 14 14 18 9 4 26 66 43 45 40 47 58 54 357 2 4 355 6 145 157 179 207 211 207 205 208 206 200 204 198 193 192 193 201 195 201 201 197 188 193 201 235 202 197 183 191 161 130 106 93 235 214 296 282 260 238 226 223 210 206 198 194 200 196 193 187 191 195 197 186 183 190 195 199 210
31 28 24 24 25 22 17 19 22 23 19 11 11 9 28 33 54 86 62 78 73 8 23 18 14 14 334 5 34 134 183 209 218 218 227 225 216 214 212 198 205 194 195 197 196 206 200 200 199 212 184 195 209 209 206 197 142 140 193 203 204 145 277 242 224 237 201 218 200 212 199 205 197 203 195 198 201 199 201 193 191 192 197 197 200
32 31 26 26 27 23 17 15 17 19 18 15 10 7 19 26 21 24 31 25 16 18 17 357 352 342 331 325 284 162 178 208 221 228 227 233 232 232 221 215 207 205 199 203 203 206 202 201 201 204 196 198 212 207 214 211 202 201 157 110 44 279 220 243 156 264 188 211 224 209 211 203 200 200 200 212 201 203 197 201 205 197 197 193 195
29 23 26 30 29 26 22 19 19 17 15 16 13 13 20 32 34 41 42 43 35 26 20 349 341 335 299 308 337 313 168 221 235 239 240 246 246 240 234 221 223 216 208 213 212 208 211 209 208 204 209 217 207 196 211 232 223 226 231 230 156 179 178 221 128 252 335 246 229 215 213 209 199 199 206 205 203 207 203 204 202 206 196 192 190
29 21 24 27 30 31 27 26 23 17 13 16 19 17 15 15 33 55 70 73 59 20 348 6 13 339 318 300 295 320 244 203 258 251 257 249 249 251 239 231 227 226 223 221 222 217 215 214 207 208 215 215 194 203 208 212 233 263 250 248 222 157 161 131 212 74 285 284 226 219 227 215 208 204 206 209 204 201 210 205 204 203 202 194 189
32 33 32 27 27 28 31 29 27 22 17 17 23 25 23 11 13 20 34 39 46 28 5 352 7 10 15 355 320 295 286 229 230 244 241 250 252 263 253 246 240 232 214 220 225 227 230 233 219 220 219 214 212 216 213 208 199 222 221 236 236 203 190 32 153 181 170 174 247 269 283 225 218 222 212 207 203 203 203 207 204 202 201 202 195
35 35 33 31 30 28 32 35 35 29 21 22 24 22 24 16 16 13 19 16 20 20 5 16 15 7 19 2 4 329 310 293 259 247 245 236 239 245 259 265 255 250 217 230 237 235 228 225 224 223 220 224 219 223 214 216 215 225 206 240 245 239 242 248 35 104 159 184 254 193 219 232 238 242 229 213 207 205 203 201 202 200 200 203 200
33 35 34 31 30 28 29 33 33 31 26 27 25 25 23 20 23 18 20 14 14 13 22 17 12 9 11 6 1 1 346 325 305 286 270 253 244 238 242 246 252 257 247 234 243 245 244 240 232 227 225 226 222 218 223 224 223 233 221 223 218 229 242 263 251 196 279 202 204 199 200 183 202 232 214 211 213 207 200 197 199 202 203 201 201
33 36 34 33 32 30 26 35 31 30 28 26 25 26 24 25 26 21 23 20 15 21 23 20 13 12 9 359 360 346 355 352 333 313 304 292 280 259 241 242 242 248 256 259 244 237 241 239 238 236 234 229 227 227 231 233 224 229 233 225 227 214 212 210 209 202 196 205 202 222 200 204 203 221 223 211 210 207 201 196 201 205 203 201 199